Погода в Вертикосе

Россия / Томская область     59°23′17″N   79°40′19″E
темп.,
°C
ветер,
м/с
пор.,
м/с
влажн.,
%
обл.,
%
осадки,
мм/ч
давл.,
гПа
погр.,
м
18 мая, ср
ср1801:00+12юз4108098 1.5 998286
04:00+12зюз51180100 0.1 999533
07:00+12зюз59833 0.1 1002360
10:00+16з34590 0.0 1004897
13:00+19зсз243995 0.0 10062384
16:00+19юз3441100 0.0 10071085
19:00+19ююз454312 0.0 1008771
22:00+15ю345938 0.0 100844
19 мая, чт
чт1901:00+13ю346486 0.0 100849
04:00+13ю3866100 0.0 1008163
07:00+14ююв41066100 0.0 1007254
10:00+18ююв61053100 0.0 1005798
13:00+18юв8955100 0.3 10031459
16:00+13юв6988100 0.1 1002618
19:00+13юв7987100 0.4 999622
22:00+13зюз7117781 0.9 998574
20 мая, пт
пт2001:00+10ююз613860 0.9 998484
04:00+9ююз715821 0.0 998565
07:00+10ююз81476100 0.0 9971275
10:00+11ююз101577100 0.5 9971452
13:00+10юз101680100 2.4 10001223
16:00+15зюз9144650 0.1 10002275
19:00+15зюз815492 0.1 10022189
22:00+11юз713595 0.0 1003607
21 мая, сб
сб2101:00+9юз511624 0.0 1004353
04:00+8юз511652 0.0 1004299
07:00+8юз6126843 0.0 1006487
10:00+12юз694999 0.0 10061027
13:00+13ююз7755100 0.0 10061011
16:00+11ююв3478100 0.8 1006480
19:00+15в3473100 0.9 1004600
22:00+13в51087100 0.8 1003329
22 мая, вс
вс2201:00+11вюв5119496 0.9 1002245
04:00+10в4896100 0.0 1001141
07:00+13вюв598494 0.0 1000177
10:00+21юв6105478 0.0 998490
13:00+26ююв9123378 0.0 9962041
16:00+27ю81230100 0.0 9963133
19:00+14з81369100 1.4 1003796
22:00+12зсз510650 0.0 1006426